QPF
0.01 0.01 0.02 0.02 0.02 0.02 0.03 0.03 0.02 0.01 0.01 0.01 0.02 0.02 0.02 0.03 0.03 0.04 0.03 0.04 0.04 0.06 0.06 0.06 0.05 0.06 0.08 0.11 0.10 0.10 0.11 0.10 0.07 0.05 0.04 0.04 0.04 0.03 0.03 0.03 0.02 0.02 0.02 0.03
0.01 0.01 0.01 0.01 0.01 0.01 0.01 0.01 0.02 0.01 0.01 0.01 0.01 0.01 0.02 0.03 0.03 0.04 0.03 0.03 0.03 0.04 0.05 0.04 0.04 0.05 0.06 0.08 0.09 0.10 0.11 0.10 0.08 0.06 0.04 0.04 0.03 0.03 0.03 0.03 0.03 0.02 0.02 0.02
0.01 0.01 0.01 0.02 0.02 0.02 0.01 0.02 0.02 0.02 0.02 0.01 0.01 0.01 0.01 0.03 0.04 0.05 0.03 0.02 0.02 0.03 0.04 0.04 0.05 0.05 0.05 0.07 0.08 0.08 0.09 0.09 0.08 0.07 0.05 0.04 0.03 0.03 0.03 0.03 0.03 0.03 0.02 0.02
0.01 0.01 0.02 0.02 0.02 0.02 0.02 0.02 0.03 0.03 0.02 0.02 0.02 0.02 0.02 0.03 0.04 0.05 0.04 0.02 0.02 0.04 0.04 0.03 0.04 0.05 0.05 0.06 0.07 0.07 0.07 0.08 0.07 0.06 0.05 0.04 0.03 0.02 0.02 0.03 0.03 0.02 0.03 0.02
0.03 0.02 0.01 0.01 0.01 0.02 0.02 0.02 0.03 0.03 0.02 0.02 0.02 0.02 0.02 0.03 0.04 0.04 0.04 0.03 0.02 0.03 0.03 0.03 0.04 0.05 0.05 0.06 0.06 0.07 0.05 0.05 0.05 0.05 0.05 0.04 0.03 0.03 0.03 0.03 0.03 0.03 0.03 0.03
0.03 0.03 0.02 0.01 0.01 0.01 0.02 0.02 0.02 0.02 0.02 0.02 0.02 0.03 0.03 0.03 0.04 0.03 0.03 0.03 0.03 0.03 0.03 0.04 0.05 0.05 0.06 0.06 0.06 0.06 0.05 0.04 0.04 0.04 0.04 0.03 0.04 0.03 0.03 0.03 0.04 0.04 0.04 0.04
0.02 0.02 0.01 0.01 0.01 0.01 0.02 0.02 0.02 0.02 0.02 0.03 0.04 0.04 0.04 0.06 0.05 0.03 0.02 0.03 0.03 0.03 0.03 0.04 0.05 0.06 0.05 0.04 0.05 0.06 0.06 0.05 0.05 0.04 0.03 0.03 0.03 0.03 0.03 0.02 0.03 0.03 0.04 0.04
0.01 0.02 0.01 0.01 0.01 0.02 0.03 0.02 0.02 0.02 0.02 0.03 0.03 0.04 0.05 0.05 0.04 0.03 0.02 0.02 0.03 0.03 0.03 0.04 0.05 0.06 0.04 0.04 0.05 0.06 0.05 0.05 0.06 0.05 0.04 0.03 0.02 0.02 0.02 0.02 0.02 0.02 0.03 0.04
0.01 0.01 0.01 0.01 0.01 0.02 0.02 0.01 0.01 0.02 0.02 0.03 0.03 0.04 0.04 0.04 0.03 0.03 0.03 0.02 0.03 0.03 0.03 0.04 0.05 0.04 0.04 0.05 0.05 0.05 0.05 0.05 0.06 0.06 0.05 0.04 0.03 0.02 0.01 0.02 0.02 0.02 0.02 0.03
0.01 0.00 0.00 0.00 0.01 0.01 0.01 0.01 0.02 0.02 0.02 0.02 0.03 0.03 0.03 0.03 0.03 0.03 0.03 0.03 0.03 0.03 0.03 0.04 0.04 0.04 0.05 0.06 0.05 0.05 0.05 0.05 0.06 0.07 0.08 0.06 0.04 0.03 0.02 0.02 0.02 0.02 0.02 0.02
0.00 0.00 0.00 0.00 0.00 0.01 0.01 0.02 0.02 0.02 0.02 0.02 0.02 0.02 0.03 0.03 0.03 0.03 0.03 0.03 0.03 0.03 0.04 0.04 0.04 0.04 0.05 0.06 0.06 0.06 0.06 0.06 0.06 0.05 0.06 0.07 0.06 0.04 0.03 0.02 0.02 0.02 0.02 0.02
0.01 0.00 0.01 0.01 0.01 0.01 0.02 0.02 0.02 0.02 0.02 0.02 0.03 0.03 0.03 0.03 0.03 0.03 0.04 0.04 0.03 0.03 0.04 0.04 0.04 0.06 0.07 0.08 0.07 0.07 0.06 0.06 0.05 0.04 0.05 0.05 0.05 0.05 0.05 0.05 0.04 0.03 0.03 0.03
0.02 0.01 0.02 0.02 0.02 0.02 0.02 0.01 0.01 0.01 0.02 0.02 0.03 0.03 0.03 0.03 0.03 0.03 0.04 0.04 0.04 0.04 0.04 0.05 0.05 0.06 0.07 0.08 0.07 0.06 0.07 0.06 0.05 0.04 0.04 0.04 0.04 0.03 0.04 0.04 0.04 0.04 0.04 0.04
0.02 0.01 0.01 0.01 0.01 0.01 0.01 0.01 0.01 0.01 0.01 0.01 0.02 0.02 0.03 0.03 0.03 0.03 0.03 0.04 0.04 0.04 0.05 0.05 0.05 0.05 0.06 0.07 0.06 0.06 0.06 0.05 0.05 0.04 0.03 0.03 0.03 0.02 0.02 0.03 0.03 0.04 0.04 0.05
0.01 0.00 0.00 0.00 0.00 0.00 0.00 0.01 0.01 0.01 0.01 0.01 0.01 0.02 0.02 0.02 0.02 0.02 0.03 0.03 0.04 0.04 0.04 0.04 0.04 0.05 0.05 0.06 0.06 0.05 0.05 0.05 0.05 0.04 0.03 0.03 0.02 0.02 0.02 0.02 0.02 0.03 0.04 0.05
0.01 0.00 0.00 0.00 0.00 0.00 0.00 0.00 0.01 0.01 0.00 0.01 0.01 0.01 0.01 0.02 0.02 0.02 0.02 0.02 0.03 0.03 0.03 0.04 0.04 0.04 0.05 0.05 0.05 0.05 0.05 0.05 0.05 0.04 0.04 0.03 0.02 0.02 0.02 0.02 0.02 0.02 0.03 0.04
0.01 0.01 0.01 0.01 0.00 0.00 0.00 0.00 0.01 0.01 0.01 0.00 0.01 0.01 0.01 0.02 0.02 0.02 0.02 0.02 0.03 0.03 0.04 0.04 0.04 0.04 0.04 0.04 0.04 0.04 0.05 0.06 0.05 0.05 0.04 0.03 0.03 0.02 0.02 0.02 0.03 0.03 0.03 0.03
0.01 0.01 0.01 0.01 0.01 0.01 0.00 0.00 0.00 0.01 0.01 0.01 0.01 0.01 0.01 0.02 0.02 0.02 0.02 0.02 0.02 0.03 0.03 0.04 0.04 0.04 0.04 0.04 0.03 0.04 0.04 0.05 0.05 0.04 0.04 0.04 0.04 0.03 0.03 0.02 0.03 0.04 0.04 0.04
0.01 0.01 0.01 0.01 0.01 0.01 0.00 0.00 0.00 0.00 0.01 0.01 0.01 0.01 0.01 0.02 0.02 0.02 0.02 0.02 0.02 0.03 0.03 0.03 0.04 0.04 0.04 0.04 0.04 0.03 0.04 0.04 0.04 0.04 0.04 0.04 0.04 0.04 0.03 0.03 0.03 0.04 0.04 0.04
0.01 0.01 0.01 0.01 0.01 0.01 0.01 0.01 0.00 0.01 0.01 0.01 0.01 0.01 0.01 0.02 0.02 0.02 0.02 0.02 0.02 0.03 0.03 0.03 0.03 0.03 0.03 0.03 0.03 0.03 0.04 0.04 0.04 0.04 0.04 0.04 0.04 0.04 0.03 0.03 0.03 0.04 0.04 0.04
0.01 0.01 0.01 0.01 0.01 0.01 0.01 0.01 0.01 0.01 0.01 0.01 0.01 0.02 0.02 0.02 0.02 0.02 0.02 0.02 0.02 0.02 0.02 0.02 0.02 0.03 0.03 0.03 0.03 0.03 0.03 0.04 0.04 0.04 0.04 0.04 0.03 0.03 0.03 0.03 0.04 0.04 0.04 0.04
0.01 0.01 0.01 0.01 0.01 0.01 0.01 0.01 0.01 0.01 0.01 0.02 0.02 0.02 0.02 0.02 0.02 0.02 0.02 0.02 0.02 0.02 0.02 0.02 0.02 0.03 0.02 0.02 0.02 0.02 0.02 0.03 0.04 0.04 0.04 0.04 0.03 0.03 0.03 0.03 0.03 0.04 0.04 0.04
0.01 0.01 0.01 0.01 0.01 0.01 0.01 0.01 0.01 0.01 0.01 0.02 0.02 0.02 0.02 0.02 0.02 0.02 0.02 0.02 0.02 0.02 0.02 0.02 0.02 0.02 0.02 0.02 0.02 0.02 0.02 0.02 0.03 0.03 0.03 0.03 0.03 0.03 0.03 0.03 0.03 0.03 0.04 0.04
0.01 0.01 0.01 0.01 0.01 0.01 0.01 0.01 0.01 0.02 0.02 0.02 0.03 0.03 0.02 0.02 0.02 0.02 0.02 0.02 0.02 0.02 0.02 0.02 0.02 0.02 0.02 0.02 0.02 0.02 0.02 0.02 0.02 0.02 0.02 0.03 0.03 0.03 0.03 0.03 0.03 0.03 0.04 0.04
0.01 0.01 0.01 0.00 0.01 0.01 0.01 0.01 0.01 0.01 0.02 0.02 0.02 0.02 0.02 0.02 0.02 0.02 0.02 0.02 0.02 0.02 0.02 0.02 0.01 0.01 0.01 0.01 0.01 0.01 0.02 0.02 0.02 0.02 0.02 0.02 0.03 0.03 0.03 0.03 0.03 0.03 0.04 0.04
0.01 0.01 0.01 0.01 0.01 0.01 0.01 0.01 0.01 0.02 0.02 0.02 0.02 0.02 0.02 0.02 0.02 0.02 0.02 0.02 0.02 0.02 0.02 0.01 0.01 0.01 0.01 0.01 0.01 0.01 0.02 0.02 0.02 0.02 0.02 0.02 0.03 0.03 0.03 0.03 0.04 0.04 0.04 0.04
0.01 0.01 0.00 0.00 0.00 0.01 0.01 0.01 0.01 0.02 0.02 0.02 0.02 0.02 0.02 0.02 0.01 0.01 0.01 0.01 0.01 0.01 0.02 0.02 0.01 0.01 0.01 0.01 0.01 0.02 0.02 0.02 0.02 0.02 0.02 0.02 0.03 0.03 0.03 0.04 0.04 0.03 0.03 0.03
MSLP
1015.30 1015.16 1014.98 1014.74 1014.38 1013.87 1013.17 1012.30 1011.26 1010.10 1008.88 1007.67 1006.55 1005.58 1004.80 1004.24 1003.86 1003.64 1003.53 1003.47 1003.39 1003.28 1003.09 1002.84 1002.53 1002.20 1001.86 1001.54 1001.25 1000.99 1000.74 1000.50 1000.24 999.95 999.64 999.31 998.97 998.64 998.32 997.99 997.63 997.23 996.72 996.10
1015.06 1014.77 1014.45 1014.08 1013.61 1013.03 1012.31 1011.45 1010.47 1009.39 1008.28 1007.18 1006.16 1005.28 1004.57 1004.05 1003.70 1003.50 1003.40 1003.36 1003.32 1003.25 1003.13 1002.94 1002.68 1002.38 1002.04 1001.68 1001.32 1000.96 1000.60 1000.23 999.85 999.47 999.10 998.73 998.39 998.08 997.78 997.49 997.17 996.80 996.32 995.73
1014.66 1014.19 1013.72 1013.21 1012.66 1012.04 1011.34 1010.53 1009.65 1008.70 1007.72 1006.75 1005.85 1005.06 1004.41 1003.92 1003.57 1003.37 1003.26 1003.22 1003.20 1003.15 1003.06 1002.90 1002.67 1002.37 1002.02 1001.62 1001.19 1000.73 1000.27 999.80 999.35 998.91 998.51 998.15 997.84 997.56 997.31 997.07 996.79 996.45 996.00 995.44
1014.12 1013.49 1012.87 1012.27 1011.68 1011.06 1010.41 1009.71 1008.96 1008.16 1007.34 1006.51 1005.73 1005.02 1004.41 1003.92 1003.57 1003.33 1003.18 1003.10 1003.04 1002.98 1002.87 1002.71 1002.47 1002.15 1001.76 1001.31 1000.81 1000.29 999.75 999.23 998.74 998.29 997.90 997.58 997.32 997.10 996.91 996.71 996.47 996.15 995.71 995.16
1013.53 1012.76 1012.05 1011.40 1010.81 1010.25 1009.70 1009.13 1008.54 1007.90 1007.24 1006.55 1005.87 1005.22 1004.63 1004.13 1003.72 1003.41 1003.18 1003.02 1002.89 1002.77 1002.61 1002.40 1002.11 1001.75 1001.30 1000.80 1000.24 999.66 999.08 998.54 998.05 997.63 997.29 997.04 996.84 996.70 996.56 996.40 996.17 995.85 995.40 994.85
1012.95 1012.12 1011.38 1010.75 1010.20 1009.73 1009.30 1008.88 1008.44 1007.97 1007.44 1006.87 1006.26 1005.65 1005.06 1004.52 1004.04 1003.63 1003.29 1003.02 1002.78 1002.56 1002.31 1002.01 1001.65 1001.21 1000.70 1000.13 999.52 998.91 998.32 997.78 997.32 996.96 996.69 996.51 996.40 996.31 996.22 996.08 995.85 995.51 995.04 994.47
1012.49 1011.67 1010.96 1010.38 1009.92 1009.56 1009.25 1008.96 1008.66 1008.31 1007.89 1007.40 1006.85 1006.25 1005.63 1005.03 1004.46 1003.94 1003.49 1003.08 1002.72 1002.37 1002.00 1001.60 1001.14 1000.61 1000.02 999.39 998.73 998.10 997.50 996.99 996.58 996.28 996.08 995.98 995.93 995.90 995.84 995.70 995.46 995.09 994.60 994.01
1012.21 1011.47 1010.85 1010.36 1009.98 1009.71 1009.50 1009.31 1009.09 1008.82 1008.47 1008.02 1007.48 1006.87 1006.22 1005.55 1004.90 1004.28 1003.71 1003.18 1002.69 1002.21 1001.72 1001.20 1000.63 1000.00 999.33 998.63 997.93 997.26 996.67 996.18 995.81 995.56 995.43 995.39 995.40 995.40 995.36 995.22 994.97 994.59 994.08 993.50
1012.18 1011.56 1011.04 1010.63 1010.33 1010.12 1009.96 1009.80 1009.61 1009.36 1009.01 1008.57 1008.02 1007.39 1006.70 1005.98 1005.25 1004.55 1003.89 1003.26 1002.66 1002.06 1001.46 1000.82 1000.15 999.42 998.66 997.89 997.13 996.44 995.83 995.35 995.00 994.79 994.70 994.70 994.74 994.77 994.74 994.62 994.37 994.00 993.51 992.97
1012.41 1011.91 1011.49 1011.14 1010.88 1010.66 1010.48 1010.29 1010.07 1009.78 1009.40 1008.92 1008.34 1007.68 1006.96 1006.21 1005.45 1004.70 1003.98 1003.28 1002.60 1001.91 1001.21 1000.47 999.69 998.87 998.02 997.17 996.36 995.61 994.98 994.48 994.13 993.92 993.85 993.87 993.93 993.99 993.98 993.88 993.67 993.35 992.93 992.47
1012.88 1012.48 1012.12 1011.79 1011.49 1011.22 1010.96 1010.68 1010.36 1009.98 1009.53 1008.99 1008.38 1007.70 1006.97 1006.21 1005.45 1004.69 1003.95 1003.21 1002.48 1001.73 1000.95 1000.13 999.26 998.35 997.41 996.48 995.59 994.78 994.10 993.56 993.19 992.97 992.90 992.92 993.00 993.07 993.11 993.07 992.93 992.70 992.40 992.08
1013.50 1013.17 1012.82 1012.46 1012.09 1011.71 1011.32 1010.91 1010.46 1009.96 1009.42 1008.83 1008.18 1007.49 1006.77 1006.03 1005.29 1004.55 1003.81 1003.07 1002.31 1001.52 1000.68 999.78 998.83 997.83 996.81 995.80 994.84 993.96 993.22 992.63 992.22 991.97 991.88 991.90 991.99 992.11 992.20 992.25 992.22 992.13 992.00 991.86
1014.20 1013.89 1013.51 1013.07 1012.60 1012.08 1011.55 1010.98 1010.40 1009.80 1009.17 1008.52 1007.85 1007.17 1006.47 1005.77 1005.07 1004.36 1003.64 1002.90 1002.12 1001.29 1000.39 999.43 998.41 997.33 996.24 995.15 994.12 993.18 992.38 991.74 991.29 991.01 990.90 990.92 991.04 991.21 991.38 991.54 991.65 991.73 991.79 991.85
1014.87 1014.53 1014.10 1013.58 1012.99 1012.34 1011.67 1010.98 1010.28 1009.59 1008.90 1008.22 1007.54 1006.88 1006.22 1005.56 1004.89 1004.21 1003.50 1002.75 1001.94 1001.07 1000.12 999.10 998.01 996.87 995.71 994.56 993.47 992.49 991.65 990.97 990.49 990.20 990.08 990.12 990.27 990.50 990.77 991.05 991.32 991.57 991.83 992.09
1015.42 1015.04 1014.55 1013.95 1013.27 1012.53 1011.76 1010.97 1010.20 1009.46 1008.74 1008.05 1007.39 1006.75 1006.12 1005.49 1004.84 1004.16 1003.45 1002.67 1001.83 1000.90 999.90 998.81 997.66 996.47 995.26 994.08 992.97 991.97 991.11 990.43 989.94 989.65 989.55 989.61 989.81 990.11 990.48 990.88 991.29 991.71 992.14 992.58
1015.79 1015.38 1014.84 1014.19 1013.46 1012.67 1011.85 1011.04 1010.25 1009.49 1008.78 1008.10 1007.47 1006.85 1006.24 1005.62 1004.97 1004.27 1003.52 1002.70 1001.79 1000.81 999.74 998.60 997.41 996.19 994.96 993.78 992.68 991.69 990.85 990.20 989.73 989.47 989.40 989.50 989.75 990.12 990.57 991.08 991.62 992.17 992.74 993.32
1015.96 1015.52 1014.97 1014.32 1013.58 1012.80 1011.99 1011.20 1010.43 1009.70 1009.02 1008.38 1007.77 1007.17 1006.56 1005.93 1005.25 1004.52 1003.71 1002.82 1001.85 1000.80 999.67 998.49 997.28 996.05 994.85 993.70 992.64 991.71 990.93 990.33 989.92 989.70 989.68 989.83 990.13 990.56 991.07 991.66 992.28 992.92 993.58 994.25
1015.93 1015.51 1014.98 1014.36 1013.66 1012.93 1012.18 1011.44 1010.73 1010.06 1009.42 1008.82 1008.23 1007.63 1007.01 1006.35 1005.63 1004.84 1003.96 1003.00 1001.97 1000.86 999.70 998.51 997.30 996.11 994.95 993.88 992.90 992.05 991.36 990.84 990.50 990.35 990.38 990.58 990.92 991.38 991.94 992.56 993.23 993.92 994.62 995.33
1015.76 1015.38 1014.90 1014.34 1013.72 1013.07 1012.40 1011.73 1011.09 1010.47 1009.88 1009.31 1008.72 1008.12 1007.48 1006.78 1006.01 1005.16 1004.22 1003.21 1002.13 1001.00 999.84 998.66 997.49 996.36 995.29 994.32 993.45 992.71 992.12 991.70 991.44 991.36 991.43 991.67 992.03 992.51 993.08 993.71 994.38 995.08 995.79 996.49
1015.54 1015.21 1014.80 1014.31 1013.78 1013.20 1012.61 1012.02 1011.43 1010.86 1010.30 1009.74 1009.16 1008.54 1007.87 1007.13 1006.32 1005.42 1004.45 1003.42 1002.33 1001.20 1000.07 998.95 997.85 996.82 995.86 995.00 994.25 993.64 993.16 992.82 992.64 992.62 992.73 992.99 993.36 993.83 994.38 994.99 995.64 996.31 996.99 997.67
1015.34 1015.07 1014.73 1014.32 1013.85 1013.34 1012.81 1012.27 1011.72 1011.17 1010.62 1010.05 1009.46 1008.82 1008.12 1007.36 1006.53 1005.62 1004.65 1003.62 1002.56 1001.49 1000.42 999.38 998.39 997.46 996.62 995.89 995.26 994.75 994.37 994.12 994.01 994.02 994.16 994.41 994.77 995.22 995.73 996.31 996.91 997.55 998.19 998.83
1015.22 1015.02 1014.74 1014.39 1013.97 1013.51 1013.01 1012.49 1011.95 1011.40 1010.84 1010.26 1009.64 1008.99 1008.28 1007.51 1006.68 1005.79 1004.84 1003.87 1002.87 1001.87 1000.90 999.96 999.08 998.28 997.56 996.94 996.42 996.01 995.71 995.52 995.44 995.48 995.62 995.86 996.20 996.60 997.08 997.60 998.16 998.74 999.34 999.95
1015.23 1015.09 1014.86 1014.55 1014.16 1013.72 1013.23 1012.71 1012.16 1011.59 1011.01 1010.41 1009.78 1009.11 1008.40 1007.64 1006.84 1005.99 1005.11 1004.21 1003.30 1002.40 1001.53 1000.71 999.95 999.25 998.64 998.11 997.68 997.34 997.09 996.94 996.89 996.93 997.07 997.29 997.58 997.95 998.38 998.85 999.37 999.90 1000.46 1001.03
1015.36 1015.26 1015.07 1014.79 1014.43 1013.99 1013.50 1012.96 1012.40 1011.82 1011.21 1010.59 1009.95 1009.29 1008.59 1007.87 1007.11 1006.32 1005.52 1004.70 1003.89 1003.09 1002.33 1001.61 1000.95 1000.35 999.82 999.37 999.00 998.71 998.50 998.38 998.33 998.37 998.49 998.68 998.95 999.28 999.67 1000.10 1000.57 1001.06 1001.59 1002.12
1015.56 1015.50 1015.35 1015.09 1014.74 1014.31 1013.82 1013.29 1012.72 1012.13 1011.52 1010.90 1010.26 1009.61 1008.95 1008.26 1007.56 1006.84 1006.12 1005.39 1004.67 1003.97 1003.30 1002.67 1002.09 1001.56 1001.10 1000.70 1000.37 1000.12 999.93 999.82 999.78 999.81 999.92 1000.09 1000.34 1000.64 1000.99 1001.39 1001.82 1002.28 1002.77 1003.28
1015.76 1015.74 1015.62 1015.39 1015.07 1014.67 1014.20 1013.68 1013.13 1012.56 1011.97 1011.37 1010.76 1010.14 1009.52 1008.88 1008.24 1007.58 1006.92 1006.27 1005.63 1005.00 1004.40 1003.84 1003.32 1002.85 1002.44 1002.08 1001.79 1001.56 1001.39 1001.29 1001.26 1001.30 1001.40 1001.57 1001.80 1002.08 1002.41 1002.78 1003.18 1003.61 1004.07 1004.55
1015.87 1015.89 1015.81 1015.63 1015.36 1015.00 1014.59 1014.12 1013.62 1013.10 1012.56 1012.00 1011.44 1010.87 1010.29 1009.71 1009.12 1008.52 1007.92 1007.32 1006.73 1006.16 1005.61 1005.10 1004.62 1004.20 1003.82 1003.50 1003.24 1003.04 1002.90 1002.82 1002.81 1002.87 1002.98 1003.16 1003.38 1003.66 1003.97 1004.32 1004.69 1005.09 1005.52 1005.96
Thickness
5432 5439 5438 5439 5441 5438 5434 5435 5436 5447 5449 5461 5462 5459 5459 5461 5462 5464 5466 5468 5470 5473 5476 5480 5485 5489 5493 5497 5500 5504 5505 5506 5507 5508 5510 5510 5510 5511 5510 5510 5509 5509 5509 5508
5426 5435 5435 5437 5441 5439 5438 5437 5435 5440 5445 5453 5452 5450 5450 5451 5454 5456 5458 5459 5462 5464 5467 5471 5476 5481 5485 5488 5491 5494 5495 5497 5497 5499 5500 5501 5501 5501 5500 5500 5499 5499 5498 5498
5421 5424 5430 5436 5439 5438 5435 5435 5436 5438 5444 5443 5443 5445 5444 5445 5446 5447 5449 5452 5454 5456 5459 5464 5468 5473 5476 5479 5482 5484 5486 5487 5489 5490 5490 5490 5490 5491 5491 5491 5490 5489 5488 5488
5408 5417 5428 5444 5435 5436 5434 5433 5431 5432 5433 5434 5434 5434 5434 5436 5437 5439 5442 5444 5446 5449 5453 5456 5460 5463 5467 5470 5473 5475 5476 5478 5479 5479 5480 5481 5481 5481 5482 5482 5481 5479 5479 5479
5399 5407 5421 5434 5432 5428 5427 5427 5427 5425 5426 5427 5426 5428 5431 5432 5431 5432 5435 5438 5440 5443 5446 5449 5452 5456 5459 5461 5462 5464 5466 5467 5468 5469 5471 5471 5472 5472 5472 5472 5471 5469 5469 5468
5392 5406 5420 5435 5429 5424 5423 5422 5424 5419 5419 5418 5420 5421 5428 5427 5425 5426 5429 5432 5435 5437 5439 5442 5445 5448 5451 5452 5453 5454 5456 5457 5458 5459 5461 5463 5463 5463 5462 5462 5461 5460 5459 5458
5385 5393 5409 5420 5418 5420 5418 5423 5418 5414 5412 5410 5410 5413 5416 5418 5419 5422 5424 5427 5429 5430 5431 5433 5436 5438 5440 5443 5444 5445 5447 5448 5449 5450 5451 5452 5453 5452 5452 5451 5450 5449 5448 5448
5378 5388 5409 5412 5409 5409 5411 5410 5408 5407 5406 5404 5404 5406 5408 5411 5414 5416 5416 5418 5420 5421 5423 5425 5427 5429 5431 5433 5434 5435 5437 5438 5439 5440 5441 5442 5441 5441 5441 5440 5440 5438 5437 5437
5388 5402 5404 5399 5401 5402 5401 5400 5401 5400 5399 5398 5398 5400 5402 5405 5407 5408 5409 5410 5411 5412 5414 5416 5417 5419 5421 5423 5425 5426 5427 5428 5428 5429 5429 5431 5431 5430 5430 5430 5430 5429 5428 5428
5381 5392 5392 5392 5392 5393 5392 5392 5393 5393 5393 5392 5392 5393 5395 5397 5398 5399 5400 5401 5402 5403 5405 5407 5408 5410 5411 5413 5415 5417 5418 5418 5419 5419 5420 5420 5420 5420 5420 5420 5420 5420 5419 5419
5374 5383 5385 5390 5386 5386 5384 5384 5384 5386 5385 5385 5386 5387 5388 5389 5390 5391 5392 5392 5393 5394 5396 5397 5398 5400 5402 5404 5405 5406 5408 5409 5408 5409 5409 5409 5410 5410 5411 5411 5412 5412 5412 5412
5380 5383 5379 5383 5381 5377 5376 5377 5377 5377 5379 5379 5379 5380 5381 5381 5382 5383 5383 5383 5384 5385 5387 5388 5389 5391 5392 5394 5396 5397 5398 5398 5398 5399 5399 5399 5399 5398 5398 5399 5400 5401 5403 5403
5376 5376 5373 5374 5371 5370 5369 5369 5370 5370 5371 5371 5372 5373 5373 5374 5374 5374 5375 5375 5375 5376 5378 5379 5380 5381 5383 5384 5386 5388 5388 5389 5389 5390 5390 5389 5389 5388 5387 5388 5389 5390 5392 5393
5365 5365 5365 5366 5364 5363 5362 5363 5363 5363 5364 5364 5365 5365 5365 5366 5366 5367 5367 5368 5368 5368 5369 5370 5371 5372 5374 5375 5377 5378 5379 5380 5380 5380 5379 5379 5378 5378 5378 5378 5378 5378 5379 5381
5357 5357 5357 5357 5355 5355 5354 5354 5355 5355 5356 5357 5357 5357 5357 5358 5359 5360 5361 5361 5361 5361 5361 5362 5363 5364 5365 5367 5368 5369 5370 5369 5369 5369 5369 5368 5368 5367 5367 5367 5367 5367 5367 5369
5348 5348 5348 5348 5347 5347 5347 5347 5348 5348 5348 5349 5349 5350 5350 5350 5351 5352 5353 5353 5353 5353 5354 5354 5355 5356 5357 5358 5359 5360 5360 5361 5361 5360 5359 5358 5358 5357 5357 5357 5357 5357 5357 5358
5338 5340 5340 5341 5341 5341 5341 5341 5342 5343 5342 5342 5343 5343 5343 5343 5343 5343 5344 5345 5346 5346 5346 5346 5348 5349 5350 5351 5351 5351 5351 5351 5352 5351 5349 5348 5348 5348 5347 5347 5347 5347 5347 5349
5334 5334 5334 5334 5334 5335 5336 5336 5336 5337 5337 5337 5336 5336 5335 5335 5335 5335 5336 5336 5337 5338 5339 5340 5341 5342 5342 5343 5342 5342 5342 5342 5342 5340 5339 5339 5339 5338 5338 5338 5338 5338 5338 5339
5328 5327 5327 5328 5328 5328 5329 5329 5330 5330 5331 5330 5330 5329 5329 5328 5328 5328 5327 5328 5328 5330 5332 5333 5335 5334 5334 5334 5335 5334 5333 5333 5332 5331 5330 5330 5329 5328 5328 5329 5329 5329 5330 5331
5322 5322 5321 5322 5322 5322 5322 5323 5323 5323 5324 5324 5323 5323 5323 5322 5321 5320 5320 5321 5322 5323 5325 5326 5327 5327 5327 5326 5327 5326 5325 5324 5323 5322 5321 5320 5320 5320 5320 5320 5321 5322 5323 5324
5315 5315 5315 5315 5315 5315 5315 5315 5315 5316 5317 5317 5317 5316 5316 5316 5315 5314 5314 5315 5317 5317 5318 5320 5320 5319 5319 5320 5320 5318 5317 5316 5315 5314 5313 5313 5312 5312 5312 5313 5314 5315 5316 5317
5307 5307 5307 5307 5307 5307 5308 5307 5308 5310 5310 5310 5310 5310 5309 5309 5308 5308 5308 5309 5311 5312 5312 5312 5312 5313 5313 5313 5312 5311 5310 5309 5308 5307 5307 5307 5306 5306 5306 5306 5307 5308 5309 5310
5300 5300 5300 5300 5300 5299 5300 5301 5301 5302 5303 5304 5304 5304 5304 5304 5303 5303 5304 5304 5305 5306 5306 5306 5307 5308 5308 5307 5305 5305 5304 5303 5302 5302 5302 5301 5301 5301 5301 5301 5301 5302 5303 5303
5294 5294 5294 5293 5292 5292 5293 5295 5295 5296 5296 5297 5298 5298 5298 5298 5298 5298 5298 5299 5300 5301 5300 5300 5302 5303 5302 5300 5299 5298 5298 5297 5297 5297 5297 5296 5296 5296 5296 5296 5296 5296 5297 5298
5287 5286 5286 5285 5286 5287 5288 5289 5289 5290 5290 5291 5291 5292 5292 5292 5292 5292 5292 5292 5294 5294 5293 5294 5295 5295 5294 5293 5293 5292 5292 5292 5292 5292 5292 5292 5292 5292 5292 5291 5291 5292 5292 5292
5281 5281 5281 5281 5281 5282 5282 5283 5283 5284 5284 5285 5286 5286 5286 5286 5286 5286 5286 5286 5287 5287 5287 5287 5287 5287 5287 5287 5286 5286 5286 5286 5287 5287 5287 5288 5288 5288 5288 5288 5287 5287 5288 5288
5275 5275 5275 5275 5276 5276 5276 5277 5278 5278 5278 5279 5279 5280 5280 5281 5281 5281 5280 5280 5280 5281 5280 5280 5280 5280 5281 5281 5281 5281 5281 5281 5282 5282 5283 5284 5284 5284 5284 5283 5283 5283 5284 5284